Regional Weather Roundup
Issued by NWS

Home | Current Version | Previous Version | Text Only | Print | Product List | Glossary Off
Versions: 1 2 3 4 5 6 7 8 9 10 11 12 13 14 15 16 17 18 19 20 21 22 23 24 25 26 27 28 29 30 31 32 33 34 35 36 37 38 39 40 41 42 43 44 45 46 47 48 49 50

000
ASUS43 KLOT 291000
RWRIL

ILLINOIS REGIONAL WEATHER ROUNDUP
NATIONAL WEATHER SERVICE CHICAGO/ROMEOVILLE IL
500 AM CDT SAT AUG 29 2015

NOTE: "FAIR" INDICATES FEW OR NO CLOUDS BELOW 12,000 FEET WITH NO
SIGNIFICANT WEATHER AND/OR OBSTRUCTIONS TO VISIBILITY.

* THESE STATIONS ARE NOT UNDER NWS QUALITY CONTROL. THEY ALSO MAY NOT
  REPORT WEATHER SUCH AS PRECIPITATION OR FOG.

ILZ001-002-007-009-015-016-024-291100-
NORTHWEST ILLINOIS

CITY           SKY/WX    TMP DP  RH WIND       PRES   REMARKS
MOLINE         CLOUDY    68  62  81 S8        29.94F
STERLING*      CLOUDY    64  61  88 SE7       29.96F
$$

ILZ003-004-008-010-011-017-018-291100-
NORTH CENTRAL ILLINOIS

CITY           SKY/WX    TMP DP  RH WIND       PRES   REMARKS
ROCKFORD       HVY RAIN  62  60  93 SE14      30.00F FOG
FREEPORT*      DRIZZLE   62  60  95 SE14G23   29.99S
$$

ILZ005-006-012>014-019>023-291100-
NORTHEAST ILLINOIS

CITY           SKY/WX    TMP DP  RH WIND       PRES   REMARKS
CHICAGO-OHARE  LGT RAIN  64  61  90 S8        30.04R
CHICAGO-MIDWAY RAIN      67  61  81 S5        30.04S
AURORA         CLOUDY    64  62  93 E5        30.04S FOG
LANSING*       CLOUDY    65  59  80 CALM      30.05S
WAUKEGAN       LGT RAIN  65  62  90 S7        30.03S
DUPAGE AIRPORT HVY RAIN  63  61  93 S6        30.04R FOG
WHEELING       LGT RAIN  65  61  87 S7        30.05R
NORTHERLY ISL    N/A     64  60  87 S2          N/A
$$

LMZ740>746-291100-
SOUTHERN LAKE MICHIGAN

STATION/POSITION SKY/WX   TEMP    WIND        PRES    VSBY  WAVE
                          AIR SEA DIR/SP/G                  HT/PER
                          (F)     (DEG/KT/KT) (MB)    (MI)  (FT/S)
SOUTHERN BUOY              69 68  130/ 10/ 12 1017.1F         1/ 3
WILMETTE HARBOR            60 56  320/  4/  6   N/A           1/ 3
HARRISON CRIB              67     160/ 11/ 14   N/A
BURNHAM HARBOR             64     150/  4/  4   N/A
BURNS HARBOR               68     150/  8/ 13 1017.9F
MICHIGAN CITY              67     130/  8/ 11   N/A
MICHIGAN CITY 6N           69 71  170/ 10/ 14   N/A           1
ST. JOSEPH                 69 72  190/ 12/ 14   N/A           1
$$

ILZ025>027-034>036-040-047-049-050-058-095>099-291100-
WEST-CENTRAL ILLINOIS

CITY           SKY/WX    TMP DP  RH WIND       PRES   REMARKS
QUINCY         CLOUDY    69  62  78 S7        29.97S
$$

ILZ028>032-037-038-041>044-048-051>054-059>061-291100-
CENTRAL ILLINOIS

CITY           SKY/WX    TMP DP  RH WIND       PRES   REMARKS
DECATUR        CLOUDY    68  61  78 S5        30.03F
PEORIA         CLOUDY    68  62  81 S7        29.99F
SPRINGFIELD    CLOUDY    70  64  81 S10       30.00F
TAYLORVILLE    NOT AVBL
$$

ILZ033-039-045-046-055>057-062-063-291100-
EAST-CENTRAL ILLINOIS

CITY           SKY/WX    TMP DP  RH WIND       PRES   REMARKS
CHAMPAIGN      CLOUDY    66  60  81 SE7       30.03F
MATTOON        HAZE      67  60  78 S7        30.03F VSB 1/2
$$

ILZ079-100>102-291100-
SOUTHWEST ILLINOIS

CITY           SKY/WX    TMP DP  RH WIND       PRES   REMARKS
CAHOKIA*       MOCLDY    70  63  78 CALM      30.01F
SPARTA*        CLOUDY    67  65  91 CALM      30.04S
$$

ILZ064>066-069>071-074>076-080>082-084>086-088>090-092>094-291100-
SOUTH-CENTRAL ILLINOIS

CITY           SKY/WX    TMP DP  RH WIND       PRES   REMARKS
CARBONDALE     MOCLDY    68  65  90 CALM      30.04R
MT. VERNON     CLOUDY    66  61  82 CALM      30.05S
$$

ILZ067-068-072-073-078-083-087-091-291100-
SOUTHEAST ILLINOIS

CITY           SKY/WX    TMP DP  RH WIND       PRES   REMARKS
LAWRENCEVILLE  CLOUDY    67  63  87 SE5       30.06S
FLORA*         CLOUDY    66  63  90 CALM      30.05S
ROBINSON*      CLOUDY    64  62  95 CALM      30.06S
$$

ABBREVIATIONS USED IN REMARKS
   TC - TEMPERATURE IN CELSIUS
  WCI - WIND CHILL INDEX
   HX - HEAT INDEX
  VSB - VISIBILITY
$$




USA.gov is the U.S. government's official web portal to all federal, state and local government web resources and services.